Location: Saint Mary
(48.7436°N, 113.4291°W)
Time: 14:23:37
(UTC+00:00)

X-37B - Pass Details

Date: 10 October 2023
Orbit: 277 x 277 km, 45.0° (Epoch: 01 November)

Event Time Altitude Azimuth Distance (km) Brightness Sun altitude
Rises 02:33:17 0° 236° (WSW) 1,910 4.8 -16.8°
Reaches altitude 10° 02:35:23 10° 221° (SW) 1,099 3.3 -17.1°
Enters shadow 02:36:31 18° 198° (SSW) 765 2.1 -17.3°
